Location: Puketoi
(40.5833°S, 176.0167°E)
Time: 13:53:58
(UTC+00:00)

ATLAS 5 CENTAUR R/B - Pass Details

Date: 08 February 2023
Orbit: 460 x 1178 km, 63.3° (Epoch: 19 March)

Event Time Altitude Azimuth Distance (km) Brightness Sun altitude
Exits shadow 15:48:12 11° 261° (W) 3,021 4.7 -18.0°
Maximum altitude 15:53:25 22° 215° (SW) 2,246 4.4 -17.2°
Drops below altitude 10° 15:58:33 10° 167° (SSE) 2,843 5.7 -16.4°
Sets 16:01:45 0° 151° (SSE) 3,677 6.8 -16.0°
